Location: Kellogg
(38.0159°N, 90.0546°W)
Time: 14:59:54
(UTC+00:00)

Courier 1B - Pass Details

Date: 13 September 2024
Orbit: 962 x 1208 km, 28.3° (Epoch: 07 October)

Event Time Altitude Azimuth Distance (km) Brightness Sun altitude
Rises 22:03:28 0° 249° (WSW) 3,966 12.1 24.0°
Reaches altitude 10° 22:06:23 10° 242° (WSW) 3,040 11.9 23.4°
Maximum altitude 22:13:20 40° 176° (S) 1,669 9.1 22.1°
Drops below altitude 10° 22:20:31 10° 110° (ESE) 3,138 9.7 20.7°
Sets 22:23:34 0° 103° (ESE) 4,106 10.2 20.1°
